This is the latest recevied weather packets stored in our database for station/object K8RLH. If no packets are shown the sender has not sent any weather packets the latest 10 day(s).
| Time | Temp. | Humidity | Pressure | Rain* | Wind** | Luminosity | Snow |
|---|---|---|---|---|---|---|---|
| 1777927052 | 25.56° C | 29% | 1016.3 hPa | 0 mm | - | 347 W/m² | - |
| 1777926749 | 25.56° C | 30% | 1016.5 hPa | 0 mm | - | 306 W/m² | - |
| 1777926449 | 25.56° C | 30% | 1016.4 hPa | 0 mm | - | 372 W/m² | - |
| 1777926146 | 25.56° C | 29% | 1016.4 hPa | 0 mm | - | 400 W/m² | - |
| 1777925844 | 26.11° C | 30% | 1016.4 hPa | 0 mm | - | 390 W/m² | - |
| 1777925541 | 25.56° C | 27% | 1016.5 hPa | 0 mm | - | 478 W/m² | - |
| 1777925238 | 25.56° C | 27% | 1016.5 hPa | 0 mm | - | 538 W/m² | - |
| 1777924934 | 25° C | 29% | 1016.7 hPa | 0 mm | - | 141 W/m² | - |
| 1777924631 | 25° C | 29% | 1016.7 hPa | 0 mm | - | 100 W/m² | - |
| 1777924327 | 25° C | 28% | 1016.7 hPa | 0 mm | - | 188 W/m² | - |
| 1777924024 | 25° C | 30% | 1016.8 hPa | 0 mm | - | 202 W/m² | - |
| 1777923720 | 25° C | 31% | 1017 hPa | 0 mm | - | 130 W/m² | - |
| 1777923416 | 24.44° C | 32% | 1016.8 hPa | 0 mm | - | 67 W/m² | - |
| 1777923114 | 24.44° C | 33% | 1017 hPa | 0 mm | - | 64 W/m² | - |
| 1777922812 | 24.44° C | 32% | 1017 hPa | 0 mm | - | 102 W/m² | - |
| 1777922510 | 24.44° C | 31% | 1017.2 hPa | 0 mm | - | 117 W/m² | - |
| 1777922208 | 23.89° C | 31% | 1017.2 hPa | 0 mm | - | 51 W/m² | - |
| 1777921904 | 24.44° C | 31% | 1017.2 hPa | 0 mm | - | 143 W/m² | - |
| 1777921600 | 24.44° C | 31% | 1017.2 hPa | 0 mm | - | 58 W/m² | - |
| 1777921297 | 23.89° C | 33% | 1017.3 hPa | 0 mm | - | 72 W/m² | - |
| 1777920993 | 23.89° C | 33% | 1017.5 hPa | 0 mm | - | 560 W/m² | - |
| 1777920690 | 23.89° C | 33% | 1017.6 hPa | 0 mm | - | 61 W/m² | - |
| 1777920386 | 23.89° C | 32% | 1017.7 hPa | 0 mm | - | 54 W/m² | - |
| 1777920081 | 23.89° C | 34% | 1017.7 hPa | 0 mm | - | 54 W/m² | - |
| 1777919779 | 23.33° C | 32% | 1017.7 hPa | 0 mm | - | 59 W/m² | - |
* Rain latest hour (hover to see other rain measurements)
** Current wind speed in m/s (hover to see current wind gust speed)